sat.trackr.live / text

‹ back to catalog

STARLINK-33616

NORAD 63385 · 2025-063Y

PAYLOAD ACTIVE UNKNOWN

§ Identity

Operator
Country
US
Launch date
2025-03-26
Launch site
AFWTR
Launch vehicle
Mass (kg)
RCS (m²)

Purposes: comms

External: N2YO · Heavens-Above · Gunter

§ Orbital elements

Epoch: 2026-09-20T15:21:56.962368Z

Period
93.85 min
Inclination
53.1594°
Eccentricity
0.0001466
Mean motion
15.34399176 rev/d
Perigee alt
461.7 km
Apogee alt
463.7 km
Semi-major
6,840.8 km
B*
2.8483e-4
RAAN
235.0112°
Arg perigee
94.0838°
Mean anomaly
266.0332°
Rev number
8,444

§ Raw data

STARLINK-336161 63385U 25063Y   26263.64024262  .00009259  00000+0  28483-3 0  99982 63385  53.1594 235.0112 0001466  94.0838 266.0332 15.34399176 84447

JSON: /api/v1/satellites/63385 · /tle

For live sub-satellite position, see the globe view (requires WebGL).

§ Visibility from observer

Set your observer location to see the next 7 days of passes ≥ 10°. The values pass through the URL so the page stays shareable.

No JS? Fill the form by hand. The geolocation button needs JavaScript.